Location: Eaton Estates
(41.3089°N, 82.0057°W)
Time: 11:38:01
(UTC+00:00)

SL-16 DEB - Visible Passes

Search period start: 30 November 2023 00:00
Search period end: 10 December 2023 00:00
Orbit: 562 x 601 km, 70.9° (Epoch: 25 November)

Date Brightness Start Highest point End Pass type
(mag) Time Alt. Az. Time Alt. Az. Time Alt. Az.
02 Dec ? 10:39:20 10° SE 10:41:26 14° E 10:43:31 10° ENE visible
03 Dec ? 10:42:19 10° SSE 10:45:27 21° ESE 10:48:35 10° NE visible
03 Dec ? 22:23:03 10° WNW 22:25:34 16° WSW 22:28:04 10° SW visible
04 Dec ? 10:45:39 10° S 10:49:21 32° ESE 10:53:03 10° NE visible
05 Dec ? 10:49:06 10° S 10:53:06 50° ESE 10:57:08 10° NE visible
06 Dec ? 10:52:36 10° SSW 10:56:45 80° ESE 11:00:54 10° NNE visible
07 Dec ? 10:56:08 10° SSW 11:00:15 66° WNW 11:04:24 10° NNE visible
08 Dec ? 09:26:26 15° E 09:26:26 15° E 09:28:13 10° ENE visible
08 Dec ? 11:02:49 38° W 11:03:37 43° WNW 11:07:36 10° N visible
09 Dec ? 09:31:35 12° NE 09:31:35 12° NE 09:32:04 10° NE visible
09 Dec ? 11:07:53 26° NNW 11:07:53 26° NNW 11:10:32 10° N visible
